BMCB-15 Weather Reports


time (UTC)temp
C
wind
direction
speed
KPH
gust
KPH
rain 1hr
cm
rain 24hr
cm
rain mn
cm
humidity
%
barometer
mb
20260503034036 13 0 0.0 0.0 0.00 0.00 0.00 89 1014.2
20260503033035 13 0 0.0 0.0 0.00 0.00 0.00 89 1014.2
20260503032036 13 0 0.0 0.0 0.00 0.00 0.00 89 1014.2
20260503031036 13 0 0.0 0.0 0.00 0.00 0.00 88 1014.2
20260503030037 13 0 0.0 0.0 0.00 0.00 0.00 89 1014.2
20260503023037 13 0 0.0 0.0 0.00 0.00 0.00 89 1014.4
20260503022037 13 0 0.0 0.0 0.00 0.00 0.00 89 1014.5
20260503021035 13 0 0.0 0.0 0.00 0.00 0.00 88 1014.4
20260503015035 13 0 0.0 0.0 0.00 0.00 0.00 88 1014.6
20260503014036 13 0 0.0 0.0 0.00 0.00 0.00 87 1014.7
20260503013037 13 0 0.0 0.0 0.00 0.00 0.00 88 1014.7
20260503012036 13 0 0.0 0.0 0.00 0.00 0.00 90 1014.8
20260503011035 13 0 0.0 0.0 0.00 0.00 0.00 91 1014.9
20260503005036 13 0 0.0 0.0 0.00 0.00 0.00 92 1015.0
20260503004037 13 0 0.0 0.0 0.00 0.00 0.00 92 1015.1
20260503003036 13 0 0.0 0.0 0.00 0.00 0.00 92 1015.1
20260503002040 13 0 0.0 0.0 0.00 0.00 0.00 91 1015.3
20260503001035 13 0 0.0 0.0 0.00 0.00 0.00 91 1015.4
20260503000044 13 0 0.0 0.0 0.00 0.00 0.00 90 1015.5
20260502235044 14 0 0.0 0.0 0.00 0.00 0.00 88 1015.5
20260502234041 14 0 0.0 0.0 0.00 0.00 0.00 89 1015.5
20260502233042 14 0 0.0 0.0 0.00 0.00 0.00 89 1015.6
20260502231043 15 0 0.0 0.0 0.00 0.00 0.00 88 1015.7
20260502230042 14 0 0.0 0.0 0.00 0.00 0.00 89 1015.8
20260502225041 14 0 0.0 0.0 0.00 0.00 0.00 88 1015.9
20260502224041 15 0 0.0 0.0 0.00 0.00 0.00 87 1015.9
20260502223043 15 0 0.0 0.0 0.00 0.00 0.00 85 1015.9
20260502222044 15 0 0.0 0.0 0.00 0.00 0.00 84 1015.9
20260502221043 15 0 0.0 0.0 0.00 0.00 0.00 82 1016.0
20260502220040 15 0 0.0 0.0 0.00 0.00 0.00 81 1016.0
20260502215046 15 0 0.0 0.0 0.00 0.00 0.00 81 1016.0
20260502214046 15 0 0.0 0.0 0.00 0.00 0.00 81 1016.1
20260502213048 15 0 0.0 0.0 0.00 0.00 0.00 82 1016.1
20260502212045 15 0 0.0 0.0 0.00 0.00 0.00 81 1016.0
20260502211045 15 0 0.0 0.0 0.00 0.00 0.00 81 1015.9
20260502210047 15 0 0.0 0.0 0.00 0.00 0.00 81 1015.9
20260502205049 16 0 0.0 0.0 0.00 0.00 0.00 80 1015.9
20260502204047 16 0 0.0 0.0 0.00 0.00 0.00 79 1016.0
20260502203048 16 0 0.0 0.0 0.00 0.00 0.00 78 1016.0
20260502201054 15 0 0.0 0.0 0.00 0.00 0.00 80 1016.1
20260502200049 15 0 0.0 0.0 0.00 0.00 0.00 80 1016.2
20260502193045 17 0 0.0 0.0 0.00 0.00 0.00 76 1016.1
20260502191046 17 0 0.0 0.0 0.00 0.00 0.00 75 1016.2
20260502190046 17 0 0.0 0.0 0.00 0.00 0.00 75 1016.2
20260502185045 17 0 0.0 0.0 0.00 0.00 0.00 73 1016.4
20260502184045 18 0 0.0 0.0 0.00 0.00 0.00 71 1016.5
20260502183043 18 0 0.0 0.0 0.00 0.00 0.00 70 1016.3
20260502182043 18 0 0.0 0.0 0.00 0.00 0.00 70 1016.2
20260502181045 19 0 0.0 0.0 0.00 0.00 0.00 70 1016.2
20260502164041 22 0 0.0 0.0 0.00 0.00 0.00 58 1015.9
20260502163039 22 0 0.0 0.0 0.00 0.00 0.00 59 1016.2
20260502162038 22 0 0.0 0.0 0.00 0.00 0.00 57 1016.3
20260502161039 23 0 0.0 0.0 0.00 0.00 0.00 55 1016.4
20260502152041 23 0 0.0 0.0 0.00 0.00 0.00 54 1016.8
20260502151040 23 0 0.0 0.0 0.00 0.00 0.00 54 1017.0
20260502122037 22 0 0.0 0.0 0.00 0.00 0.00 59 1019.5
20260502121036 22 0 0.0 0.0 0.00 0.00 0.00 59 1019.6
20260502115037 22 0 0.0 0.0 0.00 0.00 0.00 59 1020.0
20260502114039 22 0 0.0 0.0 0.00 0.00 0.00 62 1020.0
20260502113037 22 0 0.0 0.0 0.00 0.00 0.00 61 1020.2
20260502112037 21 0 0.0 0.0 0.00 0.00 0.00 63 1020.3
20260502111038 21 0 0.0 0.0 0.00 0.00 0.00 63 1020.3
20260502105038 21 0 0.0 0.0 0.00 0.00 0.00 61 1020.4
20260502104038 21 0 0.0 0.0 0.00 0.00 0.00 61 1020.5
20260502102037 21 0 0.0 0.0 0.00 0.00 0.00 62 1020.6
20260502101040 21 0 0.0 0.0 0.00 0.00 0.00 62 1020.7
20260502091038 20 0 0.0 0.0 0.00 0.00 0.00 65 1021.1
20260502071039 16 0 0.0 0.0 0.00 0.00 0.00 72 1022.1
20260502070036 15 0 0.0 0.0 0.00 0.00 0.00 73 1022.2
20260502065037 15 0 0.0 0.0 0.00 0.00 0.00 73 1022.2
20260502064036 15 0 0.0 0.0 0.00 0.00 0.00 73 1022.3
20260502062034 13 0 0.0 0.0 0.00 0.00 0.00 76 1022.3
20260502061036 13 0 0.0 0.0 0.00 0.00 0.00 75 1022.3
20260502060037 12 0 0.0 0.0 0.00 0.00 0.00 76 1022.3
20260502055038 12 0 0.0 0.0 0.00 0.00 0.00 77 1022.4
20260502053037 12 0 0.0 0.0 0.00 0.00 0.00 74 1022.2
20260502052033 12 0 0.0 0.0 0.00 0.00 0.00 75 1022.2
20260502051033 12 0 0.0 0.0 0.00 0.00 0.00 75 1022.2
20260502050037 12 0 0.0 0.0 0.00 0.00 0.00 73 1022.1
20260502045038 13 0 0.0 0.0 0.00 0.00 0.00 71 1022.0
20260502044039 13 0 0.0 0.0 0.00 0.00 0.00 71 1021.8
20260502043036 13 0 0.0 0.0 0.00 0.00 0.00 66 1021.6
20260502042035 13 0 0.0 0.0 0.00 0.00 0.00 64 1021.7
20260502041034 14 0 0.0 0.0 0.00 0.00 0.00 59 1021.8
20260502040038 13 0 0.0 0.0 0.00 0.00 0.00 59 1021.9
20260502035038 14 0 0.0 0.0 0.00 0.00 0.00 58 1022.1